Regional Weather Roundup
Issued by NWS Huntsville, AL

Home | Current Version | Previous Version | Text Only | Print | Product List | Glossary On
Versions: 1 2 3 4 5 6 7 8 9 10 11 12 13 14 15 16 17 18 19 20 21 22 23 24 25 26 27 28 29 30 31 32 33 34 35 36 37 38 39 40 41 42 43 44 45 46 47 48 49 50
324
ASUS44 KHUN 090310
RWRHUN

WEATHER ROUNDUP FOR THE TENNESSEE VALLEY
NATIONAL WEATHER SERVICE HUNTSVILLE AL
900 PM CST THU DEC 08 2016

ALZ001>004-090400-
NORTHWEST ALABAMA

CITY           SKY/WX    TMP DP  RH WIND       PRES   REMARKS
COURTLAND HCN    N/A     34 N/A N/A N6          N/A  WCI  29
RUSSELLVILLE     N/A     32 N/A N/A MISG        N/A
SHOALS AIRPORT PTCLDY    33  15  47 N9        30.51R WCI  25
SHOALS TVA RES   N/A     32 N/A N/A MISG        N/A
$$

ALZ005>007-016-090400-
NORTH CENTRAL ALABAMA

CITY           SKY/WX    TMP DP  RH WIND       PRES   REMARKS
CULLMAN AG STN   N/A     34 N/A N/A N6          N/A  WCI  29
DECATUR AP     CLOUDY    33  18  53 NW9       30.49R WCI  25
HUNTSVILLE AP  MOCLDY    35  18  49 NW7       30.47R WCI  29
MERIDIANVILLE  PTCLDY    32  18  55 NW8       30.47R WCI  25
REDSTONE ARSN  PTCLDY    33  17  53 N6        30.46R WCI  27
VINEMONT AP    FAIR      32  17  54 N7        30.46R WCI  26
$$

ALZ008>010-090400-
NORTHEAST ALABAMA

CITY           SKY/WX    TMP DP  RH WIND       PRES   REMARKS
ALBERTVILLE    CLEAR     34  23  64 N12G17    30.41R WCI  25
FORT PAYNE     CLEAR     32  16  51 N6        30.42R WCI  26
SCOTTSBORO AP  CLEAR     36  16  44 N12G17    30.46R WCI  27
SCOTTSBORO HCN   N/A     34 N/A N/A MISG        N/A
VALLEY HEAD      N/A     28 N/A N/A MISG        N/A
$$

TNZ076-096-097-090400-
SOUTHEASTERN MIDDLE TENNESSEE

CITY           SKY/WX    TMP DP  RH WIND       PRES   REMARKS
TULLAHOMA      CLEAR     27  12  54 N9        30.45R WCI  17
WINCHESTER     CLEAR     28  16  59 N6        30.46R WCI  22
$$

...SURROUNDING SITES...

CITY           SKY/WX    TMP DP  RH WIND       PRES   REMARKS
ATLANTA        CLOUDY    37  20  50 NW7       30.35R WCI  32
ANNISTON       PTCLDY    37  22  54 VRB3      30.41S
BIRMINGHAM     MOCLDY    38  23  55 NW12      30.47R WCI  30
CHATTANOOGA    PTCLDY    34  17  50 NW15      30.42S WCI  24
CORINTH        FAIR      28  16  59 N6        30.54R WCI  22
DALTON         CLEAR     32  21  64 NW12      30.40S WCI  23
GADSDEN        PTCLDY    33  24  69 W3        30.44R
GOLDEN TRNGL   MOCLDY    36  18  48 N10       30.47S WCI  28
HALEYVILLE     FAIR      31  20  63 N8        30.48S WCI  23
JACKSON TN     CLEAR     26  18  71 CALM      30.55S
MEMPHIS        PTCLDY    30  17  58 NW6       30.56S WCI  24
NASHVILLE      CLEAR     30  14  51 NW10      30.50R WCI  21
OXFORD MS      FAIR      28  18  64 N6        30.57S WCI  22
ROME           CLEAR     36  15  42 N10       30.40R WCI  28
SAVANNAH       CLEAR     30  18  59 NW6       30.53S WCI  24
TUPELO         CLOUDY    32  17  54 NW13      30.54R WCI  22
TUSCALOOSA     CLOUDY    38  22  52 N7        30.49R WCI  33
$$

...GULF COAST WEATHER...

CITY           SKY/WX    TMP DP  RH WIND       PRES   REMARKS
GULFPORT       CLOUDY    47  26  44 N14       30.43R
PASCAGOULA     MOCLDY    45  27  49 N16G23    30.44R
MOBILE         PTCLDY    44  27  51 N13       30.44R
GULF SHORES    CLOUDY    47  29  50 N9G17     30.41R
PENSACOLA      CLOUDY    49  27  42 N17G24    30.39R
DESTIN         CLOUDY    52  29  41 N16G25    30.37R
PANAMA CITY    CLOUDY    53  32  45 N9        30.34R
APPALACHICOLA  CLOUDY    56  37  49 N15       30.30R
$$





USA.gov is the U.S. government's official web portal to all federal, state and local government web resources and services.